Location: Ortigosa del Monte
(40.8418°N, 4.1772°W)
Time: 18:53:10
(UTC+00:00)

Daily predictions for brighter satellites

Satellite Brightness Start Highest point End
(mag) Time Altitude Azimuth Time Altitude Azimuth Time Altitude Azimuth
SL-12 R/B(2) 4.3 17:15:18 10° SSW 17:22:57 76° ESE 17:32:14 10° NE
Cosmos 1943 Rocket 2.3 17:21:28 10° S 17:27:00 63° ESE 17:32:31 10° NNE
Thor Agena Rocket 3.6 17:21:53 10° SSE 17:27:08 80° ENE 17:32:25 10° NNW
Timation 2 Rocket 4.2 17:21:21 10° SSW 17:28:09 72° ESE 17:35:00 10° NNE
Cosmos 1782 Rocket 4.0 17:23:53 10° SSW 17:28:17 69° W 17:32:43 10° N
Cosmos 2233 Rocket 4.2 17:23:41 10° S 17:29:58 81° W 17:36:20 10° N
COSMO-SKYMED 1 4.3 17:28:18 10° ENE 17:30:13 13° E 17:32:07 10° ESE
Cosmos 1300 Rocket 4.3 17:26:26 10° SSW 17:30:44 57° W 17:35:03 10° N
Cosmos 2251 Rocket 4.0 17:26:21 10° S 17:31:12 39° ESE 17:36:07 10° NE
BREEZE-M DEB (TANK) 2.6 17:33:19 10° W 17:35:29 40° NNW 17:39:36 10° NE
Cosmos 2058 3.9 17:32:34 10° NNE 17:35:47 23° ENE 17:38:58 10° SE
Cosmos 2061 Rocket 4.2 17:31:24 10° S 17:37:41 79° W 17:43:57 10° N
ATLAS 2AS CENTAUR R/B 4.4 17:35:17 10° N 17:38:34 14° NNE 17:41:48 10° NE
Cosmos 2082 Rocket 2.9 17:34:58 10° N 17:39:56 31° ENE 17:44:53 10° ESE
Cosmos 2278 Rocket 2.2 17:34:50 10° SSW 17:40:28 77° ESE 17:46:08 10° NNE
SAR-Lupe-1 4.1 17:38:44 10° SSE 17:42:13 55° ENE 17:45:43 10° N
MOS 1 Rocket 3.7 17:39:55 10° SE 17:43:47 33° ENE 17:47:49 10° N
AQUARIUS 4.3 17:42:45 10° SSE 17:46:59 49° ENE 17:51:15 10° N
Cosmos 1602 4.1 17:44:26 10° NNE 17:47:04 26° ENE 17:49:41 10° SE
Cosmos 1464 Rocket 4.4 17:41:41 10° SSE 17:47:27 40° E 17:53:12 10° NNE
ARIANE 5 R/B 2.4 17:43:41 10° SSE 17:48:38 75° ENE 17:53:37 10° N
Cosmos 468 Rocket 4.4 17:44:35 10° N 17:49:25 37° ENE 17:54:10 10° SE
CZ-2D R/B 4.5 17:46:17 10° ESE 17:49:39 25° ENE 17:53:05 10° NNE
Cosmos 1975 Rocket 3.2 17:45:27 10° N 17:49:49 77° W 17:54:11 10° S
Cosmos 2369 Rocket 4.0 17:50:04 10° E 17:50:09 10° E 17:50:09 10° E
SAR-Lupe-4 3.5 17:48:20 10° SSE 17:51:55 89° WNW 17:55:30 10° NNW
USA 215 3.3 17:48:09 10° ESE 17:54:37 68° NE 18:01:06 10° NW
ATLAS 5 CENTAUR R/B 3.0 17:51:07 10° NW 17:55:41 50° WSW 18:01:16 10° SSE
Cosmos 2151 Rocket 4.0 17:53:55 10° SSE 17:58:07 42° E 18:02:22 10° NNE
Cosmos 1862 3.9 17:55:05 10° NNE 17:58:14 27° ENE 18:01:22 10° SE
Cosmos 1190 Rocket 4.1 17:53:45 10° S 17:58:56 60° ESE 18:04:09 10° NNE
CZ-2D R/B 2.7 17:56:44 10° S 17:59:52 83° WSW 18:03:02 10° NNW
ISS -1.9 17:58:54 10° WNW 18:01:39 23° NNW 18:03:51 13° NNE
Cosmos 1812 1.9 17:59:32 10° S 18:02:25 89° W 18:05:19 10° N
OAO 3 Rocket 4.0 17:59:35 10° WSW 18:03:59 41° S 18:07:35 14° ESE
Cosmos 1656 Rocket 4.5 18:00:00 10° SSE 18:04:43 30° ESE 18:07:59 17° NE
Okean 1 Rocket 3.8 18:01:00 10° SSE 18:04:52 31° E 18:08:25 12° NNE
Cosmos 407 Rocket 4.4 18:04:21 10° SW 18:09:23 49° WNW 18:14:23 10° N
SKYMED 2 3.7 18:05:45 10° NNE 18:10:01 54° E 18:14:16 10° S
Sich 1 Rocket 4.1 18:06:25 10° SSE 18:10:34 37° E 18:14:46 10° NNE
Cosmos 1954 Rocket 4.0 18:06:10 10° S 18:11:21 63° ESE 18:16:33 10° NNE
IRS-P3 4.1 18:07:39 10° SSE 18:12:58 86° ENE 18:18:19 10° NNW
BlueWalker 3 2.8 18:11:37 10° SSW 18:14:49 30° SE 18:15:39 27° ESE
COSMOS 2406 3.8 18:10:33 10° N 18:15:39 33° ENE 18:19:01 18° ESE
SL-19 R/B 4.4 18:12:06 10° SE 18:16:55 40° ENE 18:21:45 10° N
SMAP 4.4 18:13:12 10° S 18:17:38 43° W 18:22:05 10° NNW
Cosmos 968 Rocket 4.4 18:15:45 10° SSE 18:19:54 25° E 18:20:21 25° E
SJ 16-02 1.2 18:16:22 10° SSW 18:20:40 79° ESE 18:24:28 13° NNE
Cosmos 1072 Rocket 4.4 18:14:57 10° S 18:21:06 81° E 18:27:13 10° N
Cosmos 44 Rocket 4.3 18:16:58 10° SW 18:21:30 43° NW 18:26:12 10° NNE
YAOGAN 1 2.8 18:18:35 10° SE 18:22:35 42° ENE 18:26:36 10° N
Cosmos 2026 Rocket 4.5 18:17:59 10° N 18:23:27 33° ENE 18:28:56 10° SE
OAO 2 Rocket 4.4 18:19:03 10° WSW 18:23:42 39° S 18:27:11 17° SE
SPOT 1/Viking Rocket 3.5 18:19:07 10° SSE 18:24:13 65° ENE 18:29:22 10° N
Cosmos 540 Rocket 4.0 18:22:21 10° NNW 18:27:25 61° WSW 18:32:25 10° S
BREEZE M DEB (TANK) 4.3 18:27:13 10° S 18:28:15 13° SSE 18:28:15 13° SSE
Cosmos 2344 4.3 18:25:37 10° NNW 18:33:09 41° NE 18:38:34 24° E
Spot 4 Rocket 3.9 18:29:56 10° SSE 18:34:58 68° ENE 18:40:03 10° N
DELTA 2 R/B (1) 4.1 18:31:02 10° SW 18:36:16 44° SSE 18:38:13 32° ESE
Resurs 1-3 3.5 18:32:50 10° SSE 18:37:02 57° ENE 18:41:16 10° N
RESURS DK-1 3.7 18:33:19 10° NW 18:37:03 39° WSW 18:40:45 10° S
CZ-4 R/B 4.5 18:35:03 10° S 18:39:00 73° WSW 18:42:58 10° NNW
Meteor 2-3 Rocket 3.9 18:33:54 10° N 18:39:22 46° ENE 18:44:44 10° SSE
Cosmos 1400 Rocket 3.1 18:38:58 10° SSW 18:42:44 63° W 18:45:47 15° N
Cosmos 304 Rocket 3.8 18:40:44 10° SSW 18:45:26 75° WNW 18:48:46 20° NNE
Nadezhda 4 Rocket 3.9 18:39:40 10° N 18:45:58 89° W 18:52:10 10° S
Cosmos 371 Rocket 3.4 18:42:29 10° SSW 18:47:16 75° WNW 18:50:35 20° NNE
Helios 1A Rocket 2.8 18:50:27 47° NNW 18:51:12 62° WNW 18:54:32 10° SSW
Cosmos 1536 Rocket 3.9 18:47:19 10° NNW 18:51:43 65° W 18:56:02 10° S
Okean 2 Rocket 3.5 18:48:17 10° SSW 18:52:38 61° W 18:56:58 10° N
Cosmos 1627 Rocket 4.4 18:50:17 10° N 18:56:20 58° E 19:02:25 10° SSE
Cosmos 2195 Rocket 4.4 18:53:34 10° N 18:59:55 79° E 19:06:15 10° S
NOAA 6 3.9 18:58:05 10° SSE 19:03:14 81° ENE 19:08:23 10° N
COSMO-SKYMED 1 3.3 19:03:10 20° N 19:05:48 49° WNW 19:09:46 10° SSW
ATLAS 2A CENTAUR R/B 4.4 19:00:02 10° WSW 19:08:39 22° SSW 19:10:52 18° SSE
BREEZE-M DEB (TANK) 4.4 19:07:52 10° WNW 19:11:07 38° N 19:11:48 36° NNE
Cosmos 1943 Rocket 4.4 19:07:04 10° W 19:11:10 20° NW 19:15:17 10° N
BREEZE-M DEB (TANK) 3.8 18:58:34 10° WNW 19:11:33 81° NNE 19:12:27 63° E
Cosmos 841 Rocket 3.6 19:11:45 10° NNW 19:17:00 75° WSW 19:19:04 38° S
DMSP B5D1-3 4.4 19:20:18 86° WNW 19:20:20 86° WNW 19:25:26 10° SSW
Cosmos 2082 Rocket 3.5 19:18:54 10° NW 19:24:01 37° WSW 19:29:07 10° S
ATLAS 2AS CENTAUR R/B 3.4 19:25:01 10° NNW 19:29:41 36° NNE 19:29:41 36° NNE
Cosmos 1634 Rocket 3.9 19:26:42 10° S 19:32:59 84° W 19:34:50 49° N
Cosmos 2369 Rocket 2.6 19:27:55 10° SSW 19:32:00 51° SSW 19:32:00 51° SSW
Cosmos 2297 4.2 19:29:26 10° SSW 19:33:36 51° SSW 19:33:36 51° SSW
USA 281 4.1 19:58:22 38° NNW 19:58:22 38° NNW 20:02:12 10° NNW
SJ 16-02 4.4 19:58:43 10° WNW 19:59:22 10° NW 20:00:01 10° NW
